[[{"header":{"parameterUnit":"m.s-1","parameterCategory":1,"la1":30.2991,"la2":30.254,"lo1":-89.0895,"lo2":-89.0444,"dy":0.0017,"dx":0.0017,"nx":28,"ny":28,"refTime":"2023-10-07T03:00:00:Z","depth":0,"parameterNumber":2,"parameterNumberName":"U-component_of_WINDS"},"data":[0,0,0,0,0,0,0,0,0,0,0,0,0,0,0,0,0,0,0,0,0,0,0,0,0,0,0,0,0,0,0,0,0,0,0,0,0,0,0,0,0,0,0,0,0,0,0,0,0,0,0,0,0,0,0,0,0,0,-0.6084,-0.6084,0,-0.6128,-0.6128,-0.6129,-0.61,-0.6099,-0.6098,-0.6097,-0.6142,-0.6145,-0.6147,0,0,0,0,0,0,0,0,0,0,0,0,0,-0.5976,-0.5978,-0.6084,-0.6085,-0.6085,-0.6127,-0.6128,-0.6129,-0.6101,-0.6099,-0.6097,-0.6096,-0.6141,-0.6144,-0.6147,0,0,0,0,0,0,0,0,0,0,0,0,0,-0.6022,-0.5979,-0.6084,-0.6076,-0.6076,-0.6127,-0.6128,-0.6129,-0.6101,-0.6099,-0.6097,-0.6095,-0.614,-0.6144,-0.6148,-0.6209,0,0,-0.6159,-0.616,0,0,0,0,0,0,0,0,-0.6019,-0.6026,-0.6077,-0.6077,-0.6077,-0.6107,-0.6107,-0.6156,-0.6101,-0.6092,-0.6097,-0.6094,-0.6132,-0.6136,-0.6149,-0.6212,-0.6214,-0.6159,-0.6161,-0.6163,-0.6164,0,0,0,0,0,0,0,-0.6016,-0.6024,-0.6101,-0.6078,-0.6077,-0.607,-0.6075,-0.6116,-0.6122,-0.6092,-0.609,-0.6096,-0.6132,-0.6145,-0.615,-0.6214,-0.6159,-0.6162,-0.6165,-0.6166,-0.6329,-0.6331,0,0,0,0,0,0,-0.6014,-0.6021,-0.61,-0.6103,-0.6043,-0.6074,-0.6079,-0.6099,-0.6122,-0.6123,-0.6097,-0.6094,-0.614,-0.6145,-0.6151,-0.6225,-0.6163,-0.6166,-0.6168,-0.6327,-0.633,-0.6332,0,0,0,0,0,0,-0.6011,-0.6021,-0.6098,-0.6061,-0.6071,-0.6078,-0.6101,-0.6101,-0.6115,-0.6126,-0.6127,-0.611,-0.6139,-0.6146,-0.6195,-0.6226,-0.6168,-0.6171,-0.6325,-0.6328,-0.6331,-0.6374,0,0,0,0,0,0,-0.6008,-0.602,-0.6044,-0.6062,-0.6073,-0.6142,-0.6103,-0.6103,-0.6121,-0.6117,-0.6138,-0.614,-0.6138,-0.619,-0.6199,-0.623,-0.6174,-0.6322,-0.6326,-0.633,-0.637,-0.6378,-0.6385,0,0,0,0,0,-0.6005,-0.6055,-0.6045,-0.6055,-0.6103,-0.6143,-0.6149,-0.6146,-0.6123,-0.6147,-0.6154,-0.6139,-0.6221,-0.6195,-0.6205,-0.6238,-0.632,-0.6325,-0.6329,-0.6366,-0.6376,-0.6385,0,0,0,0,0,0,-0.6041,-0.6057,-0.6047,-0.6104,-0.6123,-0.6139,-0.6169,-0.6157,-0.6183,-0.6178,-0.6173,-0.6178,-0.6229,-0.6238,-0.6209,-0.6299,-0.6267,-0.6274,-0.6291,-0.6301,-0.6309,-0.6306,-0.6177,0,0,0,0,0,-0.6055,-0.6087,-0.6099,-0.6149,-0.6158,-0.6162,-0.618,-0.6175,-0.6194,-0.6202,-0.6212,-0.6231,-0.6261,-0.6281,-0.631,-0.637,-0.6374,-0.6397,-0.6405,-0.6411,-0.6418,-0.6451,-0.6461,-0.6348,-0.6348,-0.6348,0,0,-0.6086,-0.6099,-0.6119,-0.6156,-0.617,-0.6203,-0.6169,-0.6205,-0.623,-0.6207,-0.6255,-0.6263,-0.6283,-0.6338,-0.6363,-0.6347,-0.645,-0.6418,-0.6423,-0.6426,-0.6457,-0.6467,-0.6477,-0.6351,-0.635,-0.635,0,0,-0.6159,-0.6172,-0.6214,-0.6228,-0.6249,-0.6251,-0.6261,-0.6278,-0.6283,-0.6329,-0.6313,-0.6342,-0.6394,-0.6409,-0.6424,-0.65,-0.6488,-0.651,-0.6551,-0.6583,-0.6592,-0.66,-0.6628,-0.6638,-0.6516,-0.6516,-0.6516,0,-0.6195,-0.6244,-0.6238,-0.6275,-0.6292,-0.6272,-0.6315,-0.6329,-0.6358,-0.637,-0.6352,-0.6416,-0.6428,-0.6486,-0.6505,-0.6517,-0.6529,-0.6508,-0.6591,-0.6599,-0.6606,-0.6633,-0.6643,-0.6519,-0.6518,-0.6518,-0.6518,0,-0.6287,-0.6321,-0.6353,-0.6381,-0.6401,-0.6441,-0.6441,-0.6462,-0.6455,-0.6458,-0.6506,-0.652,-0.655,-0.6563,-0.6557,-0.662,-0.661,-0.6591,-0.656,-0.662,-0.6645,-0.6655,-0.6522,-0.6521,-0.6521,-0.652,0,0,-0.6387,-0.6409,-0.6421,-0.6434,-0.6454,-0.648,-0.6519,-0.6548,-0.6566,-0.6586,-0.6619,-0.6662,-0.6645,-0.6661,-0.6656,-0.6684,-0.6744,-0.6662,-0.6662,-0.6677,-0.6815,-0.683,-0.6842,-0.6734,-0.6736,-0.6738,-0.6813,0,-0.6462,-0.6529,-0.6524,-0.6588,-0.6619,-0.66,-0.6633,-0.6649,-0.6653,-0.668,-0.6684,-0.6715,-0.6689,-0.6699,-0.6725,-0.6731,-0.6772,-0.6725,-0.6765,-0.6767,-0.6762,-0.6855,-0.6871,-0.6942,-0.6823,-0.6824,-0.6826,0,-0.6559,-0.6582,-0.6649,-0.6664,-0.6677,-0.6707,-0.6733,-0.6759,-0.6776,-0.6777,-0.6795,-0.6785,-0.6823,-0.6789,-0.6842,-0.6811,-0.6826,-0.6831,-0.6834,-0.6839,-0.6801,-0.6863,-0.6964,-0.6975,-0.6841,-0.684,-0.6839,0,-0.6626,-0.6673,-0.672,-0.673,-0.6749,-0.6771,-0.6779,-0.6795,-0.6812,-0.6834,-0.6846,-0.6872,-0.6887,-0.6908,-0.6905,-0.688,-0.6959,-0.6925,-0.6962,-0.6962,-0.6981,-0.698,-0.7087,-0.6988,-0.6988,-0.6988,-0.6988,0,-0.6712,-0.6754,-0.675,-0.6779,-0.6825,-0.6817,-0.6863,-0.6869,-0.6883,-0.6912,-0.6896,-0.6924,-0.6918,-0.6945,-0.6943,-0.6987,-0.6994,-0.6996,-0.6995,-0.6998,-0.6998,-0.701,-0.7005,-0.6991,-0.699,-0.699,-0.6989,0,-0.6795,-0.6794,-0.6844,-0.6856,-0.686,-0.6894,-0.6905,-0.6932,-0.6933,-0.697,-0.6978,-0.6981,-0.7012,-0.7011,-0.7047,-0.7045,-0.71,-0.7093,-0.7094,-0.7093,-0.7131,-0.7128,-0.725,-0.7266,-0.7156,-0.7157,-0.7158,0,-0.6851,-0.6883,-0.6898,-0.6917,-0.6926,-0.6956,-0.6974,-0.6967,-0.6986,-0.7007,-0.7031,-0.7061,-0.7085,-0.7135,-0.7141,-0.7167,-0.7162,-0.7202,-0.7166,-0.7168,-0.7163,-0.7162,-0.7165,-0.721,-0.7212,-0.7213,-0.7213,0,-0.695,-0.6947,-0.6973,-0.6999,-0.702,-0.704,-0.7058,-0.7074,-0.7068,-0.709,-0.7122,-0.714,-0.7176,-0.7206,-0.7231,-0.724,-0.7226,-0.7224,-0.7234,-0.7239,-0.7239,-0.724,-0.7116,-0.7222,-0.7221,-0.7221,-0.722,-0.722,-0.7022,-0.7049,-0.7064,-0.7093,-0.7106,-0.7123,-0.7148,-0.7152,-0.7179,-0.7207,-0.7201,-0.7237,-0.7252,-0.7284,-0.7295,-0.7323,-0.7308,-0.7323,-0.7327,-0.7331,-0.7335,-0.7233,-0.7327,-0.7327,-0.7326,-0.7326,-0.7326,0,-0.7121,-0.7129,-0.7156,-0.7181,-0.7204,-0.7187,-0.7206,-0.7226,-0.7258,-0.7273,-0.7296,-0.7332,-0.736,-0.7367,-0.7394,-0.7414,-0.7409,-0.7422,-0.7421,-0.7423,-0.7346,-0.7335,-0.7426,-0.7426,-0.7426,-0.7426,-0.7426,-0.7426,-0.7175,-0.722,-0.7219,-0.727,-0.7278,-0.7313,-0.7325,-0.734,-0.7352,-0.7393,-0.7416,-0.7419,-0.7431,-0.7458,-0.7483,-0.7484,-0.7496,-0.7512,-0.751,-0.7439,-0.7429,-0.7419,-0.7409,-0.7514,-0.7514,-0.7585,-0.7586,-0.7587]},{"header":{"parameterUnit":"m.s-1","parameterCategory":1,"la1":30.2991,"la2":30.254,"lo1":-89.0895,"lo2":-89.0444,"dy":0.0017,"dx":0.0017,"nx":28,"ny":28,"refTime":"2023-10-07T03:00:00:Z","depth":0,"parameterNumber":3,"parameterNumberName":"V-component_of_WINDS"},"data":[0,0,0,0,0,0,0,0,0,0,0,0,0,0,0,0,0,0,0,0,0,0,0,0,0,0,0,0,0,0,0,0,0,0,0,0,0,0,0,0,0,0,0,0,0,0,0,0,0,0,0,0,0,0,0,0,0,0,-6.7907,-6.7909,0,-6.8065,-6.8067,-6.8069,-6.7992,-6.7988,-6.7984,-6.798,-6.8136,-6.8144,-6.8152,0,0,0,0,0,0,0,0,0,0,0,0,0,-6.7533,-6.754,-6.7907,-6.7909,-6.7911,-6.8065,-6.8067,-6.8069,-6.7993,-6.7988,-6.7983,-6.7978,-6.8134,-6.8143,-6.8153,0,0,0,0,0,0,0,0,0,0,0,0,0,-6.7693,-6.7542,-6.7906,-6.7891,-6.7892,-6.8064,-6.8067,-6.807,-6.7994,-6.7988,-6.7981,-6.7976,-6.8131,-6.8142,-6.8154,-6.835,0,0,-6.8191,-6.8196,0,0,0,0,0,0,0,0,-6.7684,-6.7707,-6.7892,-6.7893,-6.7893,-6.8003,-6.7992,-6.8163,-6.7995,-6.7955,-6.798,-6.7973,-6.8097,-6.8111,-6.8154,-6.8357,-6.8364,-6.8192,-6.8199,-6.8204,-6.8207,0,0,0,0,0,0,0,-6.7673,-6.77,-6.7969,-6.7894,-6.7895,-6.7875,-6.7891,-6.8025,-6.8058,-6.7958,-6.7953,-6.7973,-6.8096,-6.8142,-6.8157,-6.8366,-6.8191,-6.8202,-6.8209,-6.8214,-6.8737,-6.8743,0,0,0,0,0,0,-6.7664,-6.7691,-6.7964,-6.7974,-6.7772,-6.7886,-6.7904,-6.7974,-6.8056,-6.8063,-6.7978,-6.7968,-6.8125,-6.8143,-6.8162,-6.8397,-6.8204,-6.8215,-6.8222,-6.873,-6.8738,-6.8746,0,0,0,0,0,0,-6.7656,-6.7689,-6.7958,-6.7831,-6.7864,-6.7899,-6.7978,-6.798,-6.8027,-6.8071,-6.8076,-6.802,-6.8121,-6.8145,-6.8304,-6.8401,-6.822,-6.8231,-6.8722,-6.8733,-6.8742,-6.8868,0,0,0,0,0,0,-6.7646,-6.7686,-6.7762,-6.7834,-6.7871,-6.8099,-6.7984,-6.7987,-6.8048,-6.8038,-6.8112,-6.8118,-6.8118,-6.8287,-6.8316,-6.8414,-6.8241,-6.8714,-6.8727,-6.8739,-6.8855,-6.8881,-6.8903,0,0,0,0,0,-6.7632,-6.779,-6.7767,-6.78,-6.7967,-6.8105,-6.8126,-6.8124,-6.8056,-6.8132,-6.8161,-6.8116,-6.8386,-6.8303,-6.8336,-6.8439,-6.8708,-6.8723,-6.8738,-6.8844,-6.8876,-6.8902,0,0,0,0,0,0,-6.7727,-6.7799,-6.7774,-6.796,-6.8027,-6.8092,-6.8187,-6.8158,-6.8244,-6.823,-6.8222,-6.824,-6.8405,-6.8437,-6.8345,-6.8633,-6.8536,-6.8558,-6.8606,-6.8636,-6.8659,-6.8648,-6.825,0,0,0,0,0,-6.777,-6.7878,-6.7934,-6.8092,-6.8128,-6.8152,-6.8212,-6.8205,-6.8273,-6.8301,-6.8341,-6.8408,-6.8507,-6.8573,-6.8667,-6.8859,-6.8874,-6.8946,-6.897,-6.8989,-6.9009,-6.9113,-6.9146,-6.8796,-6.8795,-6.8795,0,0,-6.7859,-6.7912,-6.798,-6.8113,-6.8164,-6.8275,-6.8177,-6.8297,-6.8378,-6.8318,-6.8472,-6.8503,-6.8577,-6.8754,-6.8833,-6.8786,-6.9109,-6.9009,-6.9024,-6.9033,-6.9132,-6.9165,-6.9194,-6.8806,-6.8804,-6.8802,0,0,-6.8078,-6.8129,-6.8267,-6.8321,-6.8401,-6.8416,-6.8449,-6.8519,-6.8538,-6.8692,-6.865,-6.8745,-6.8917,-6.8971,-6.9022,-6.9262,-6.9224,-6.9292,-6.9418,-6.9519,-6.9547,-6.9571,-6.9657,-6.9688,-6.9311,-6.9312,-6.9312,0,-6.8178,-6.8345,-6.8341,-6.8466,-6.8526,-6.8478,-6.8617,-6.8669,-6.8774,-6.8816,-6.8762,-6.8977,-6.9023,-6.9212,-6.9271,-6.9313,-6.935,-6.9284,-6.9543,-6.9568,-6.959,-6.9672,-6.9705,-6.9319,-6.9319,-6.9318,-6.9317,0,-6.8464,-6.858,-6.8682,-6.8788,-6.8858,-6.899,-6.9004,-6.9076,-6.9062,-6.9083,-6.924,-6.9293,-6.9398,-6.9442,-6.9429,-6.9629,-6.9597,-6.9544,-6.9446,-6.9632,-6.9709,-6.974,-6.9331,-6.9328,-6.9326,-6.9324,0,0,-6.8748,-6.8851,-6.8888,-6.8936,-6.902,-6.9109,-6.9237,-6.9342,-6.9403,-6.9477,-6.9584,-6.9731,-6.9682,-6.9739,-6.9732,-6.9821,-7.0008,-6.9756,-6.9757,-6.9802,-7.0232,-7.0273,-7.031,-6.9983,-6.9989,-6.9994,-7.0226,0,-6.8974,-6.9202,-6.9202,-6.9411,-6.9518,-6.9474,-6.9586,-6.9649,-6.9671,-6.9764,-6.9787,-6.9892,-6.9819,-6.9853,-6.9939,-6.9967,-7.0095,-6.995,-7.0082,-7.0087,-7.0066,-7.035,-7.0393,-7.061,-7.0256,-7.0261,-7.0265,0,-6.9268,-6.9354,-6.9575,-6.9645,-6.9689,-6.979,-6.9886,-6.9975,-7.0045,-7.0055,-7.0119,-7.0098,-7.0227,-7.0126,-7.0303,-7.0205,-7.0258,-7.028,-7.0288,-7.0301,-7.0188,-7.0371,-7.0679,-7.0712,-7.0312,-7.0308,-7.0305,0,-6.9454,-6.9625,-6.9779,-6.9821,-6.9906,-6.9978,-7.0016,-7.008,-7.0143,-7.0225,-7.0266,-7.0362,-7.0414,-7.0488,-7.0493,-7.0419,-7.0672,-7.0571,-7.0684,-7.0684,-7.074,-7.0736,-7.1062,-7.0773,-7.0772,-7.0772,-7.0771,0,-6.9707,-6.9844,-6.9864,-6.9959,-7.0111,-7.0109,-7.0258,-7.029,-7.0347,-7.0446,-7.0413,-7.0506,-7.0507,-7.0602,-7.0606,-7.0752,-7.0776,-7.0787,-7.0787,-7.0791,-7.079,-7.0826,-7.0812,-7.078,-7.0778,-7.0777,-7.0775,0,-6.9941,-6.996,-7.0126,-7.0193,-7.0213,-7.0322,-7.0378,-7.0468,-7.0487,-7.0613,-7.0642,-7.0672,-7.0782,-7.0794,-7.0921,-7.0923,-7.1101,-7.1083,-7.1078,-7.1076,-7.1188,-7.1178,-7.1549,-7.1598,-7.1276,-7.1279,-7.1282,0,-7.0101,-7.0206,-7.0285,-7.035,-7.0393,-7.0498,-7.0562,-7.0564,-7.0632,-7.072,-7.0799,-7.0906,-7.0992,-7.1169,-7.1201,-7.1298,-7.1283,-7.1407,-7.1298,-7.1299,-7.1286,-7.1281,-7.1291,-7.1428,-7.1432,-7.1435,-7.1437,0,-7.0385,-7.0389,-7.0485,-7.0584,-7.0663,-7.074,-7.0813,-7.0867,-7.0877,-7.0955,-7.1069,-7.1135,-7.1266,-7.1373,-7.1469,-7.1505,-7.1474,-7.1471,-7.1502,-7.1508,-7.1502,-7.1508,-7.1137,-7.1463,-7.146,-7.1458,-7.1457,-7.1456,-7.0587,-7.0679,-7.0749,-7.0856,-7.0912,-7.0981,-7.1069,-7.11,-7.1195,-7.1303,-7.1297,-7.1422,-7.1488,-7.1614,-7.1658,-7.1755,-7.1714,-7.1759,-7.177,-7.1782,-7.1794,-7.1485,-7.1772,-7.1771,-7.177,-7.177,-7.1769,0,-7.087,-7.0913,-7.1012,-7.1116,-7.12,-7.1164,-7.1243,-7.1315,-7.1426,-7.1492,-7.1578,-7.1708,-7.1811,-7.1851,-7.1952,-7.2021,-7.2009,-7.2048,-7.2043,-7.2052,-7.1824,-7.1788,-7.2056,-7.2056,-7.2056,-7.2056,-7.2056,-7.2056,-7.1027,-7.118,-7.1193,-7.1372,-7.1414,-7.1538,-7.1586,-7.1649,-7.1702,-7.1849,-7.1936,-7.1962,-7.2017,-7.2121,-7.2214,-7.2223,-7.2262,-7.2307,-7.231,-7.2097,-7.2068,-7.204,-7.2006,-7.2315,-7.2316,-7.2529,-7.2531,-7.2533]}]]